Find Starlink 32871

NORAD ID: 62924 Int'l Des: 2025-027 Owner: SPXS Country: US Constellation: starlink operational
LEOCIRCULAR

Live-Position

3D-Globus wird geladen...

Über Starlink 32871

Beschreibung wird geladen...

Nächste Überflüge

Passes for default location (London). Set your location on the main map for personalized predictions.

Höhenverlauf

Loading altitude history...

Zweizeiliger Elementsatz

1 62924U 25027T 26125.38868918 .00013481 00000-0 49830-3 0 9990
2 62924 42.9972 168.6592 0001279 256.2819 103.7890 15.27592643 70219
Epoch: 5. Mai 2026 • Age: 17 hours

Aktueller Status

Höhe 489.7 km
Geschwindigkeit 7.62 km/s
Subsatellitenpunkt -28.50°S, 126.2°E
Startdatum 8. Feb. 2025
Alter 1.2 years
Typ internet

Technische Details

Klassifizierung Payload
Masse 730.00 kg
Trockenmasse 700.00 kg
Gesamtmasse 730.00 kg
Länge 0.30 m
Durchmesser 4.10 m
Spannweite 29.00 m
Form Box + pan
Hersteller SPXS
Bus-Typ Starlink V2M
Phasenstatus In Orbit
Besitzer/Staat SPXS/US

Most Searched